DW9727 Weather Reports


Display with metric or nautical units.
time (UTC)temp
F
wind
direction
speed
MPH
gust
MPH
rain 1hr
in
rain 24hr
in
rain mn
in
humidity
%
barometer
mb
20260903183711 91 209 10.0 17.0 0.00 0.00 0.00 53 1005.5
20260903182711 91 217 9.0 16.0 0.00 0.00 0.00 56 1005.8
20260903181711 90 215 13.0 21.0 0.00 0.00 0.00 55 1006.0
20260903180711 90 217 10.0 20.0 0.00 0.00 0.00 56 1006.1
20260903175710 90 208 11.0 18.0 0.00 0.00 0.00 56 1006.0
20260903174710 90 211 13.0 24.0 0.00 0.00 0.00 56 1006.2
20260903173711 89 196 11.0 20.0 0.00 0.00 0.00 57 1006.1
20260903172711 89 164 10.0 18.0 0.00 0.00 0.00 56 1006.3
20260903170710 89 203 10.0 20.0 0.00 0.00 0.00 58 1006.5
20260903165711 89 203 9.0 17.0 0.00 0.00 0.00 58 1006.6
20260903164710 88 201 8.0 16.0 0.00 0.00 0.00 61 1006.5
20260903163710 87 178 9.0 15.0 0.00 0.00 0.00 61 1006.7
20260903161710 86 178 8.0 18.0 0.00 0.00 0.00 63 1006.7
20260903160711 85 180 8.0 12.0 0.00 0.00 0.00 61 1006.6
20260903155711 85 222 9.0 14.0 0.00 0.00 0.00 62 1006.4
20260903154711 85 173 7.0 13.0 0.00 0.00 0.00 63 1006.3
20260903153710 84 176 9.0 18.0 0.00 0.00 0.00 64 1006.3
20260903152710 84 194 10.0 17.0 0.00 0.00 0.00 64 1006.5
20260903150711 82 208 9.0 16.0 0.00 0.00 0.00 67 1006.3
20260903145710 81 229 10.0 16.0 0.00 0.00 0.00 67 1006.5
20260903142711 79 207 6.0 12.0 0.00 0.00 0.00 72 1007.1
20260903140711 77 205 3.0 7.0 0.00 0.00 0.00 75 1007.2
20260903135711 76 194 5.0 10.0 0.00 0.00 0.00 74 1006.9
20260903134710 77 194 6.0 8.0 0.00 0.00 0.00 74 1007.0
20260903133710 77 213 6.0 8.0 0.00 0.00 0.00 73 1007.0
20260903132710 76 234 5.0 8.0 0.00 0.00 0.00 74 1007.3
20260903131710 76 190 4.0 10.0 0.00 0.00 0.00 76 1007.2
20260903130710 75 204 6.0 9.0 0.00 0.00 0.00 76 1007.0
20260903125710 75 243 2.0 3.0 0.00 0.00 0.00 75 1007.0
20260903124711 75 267 2.0 3.0 0.00 0.00 0.00 74 1006.9
20260903123712 75 220 1.0 3.0 0.00 0.00 0.00 73 1006.5
20260903121711 76 186 2.0 7.0 0.00 0.00 0.00 72 1005.9
20260903115711 76 206 3.0 9.0 0.00 0.00 0.00 71 1005.7
20260903114710 77 180 5.0 10.0 0.00 0.00 0.00 70 1005.6
20260903113710 77 180 5.0 12.0 0.00 0.00 0.00 70 1005.6
20260903112711 77 174 7.0 13.0 0.00 0.00 0.00 69 1005.6
20260903111710 77 185 8.0 17.0 0.00 0.00 0.00 69 1005.4
20260903110711 78 191 9.0 16.0 0.00 0.00 0.00 68 1005.5
20260903105710 78 157 9.0 16.0 0.00 0.06 0.00 68 1005.5
20260903104711 78 182 9.0 16.0 0.00 0.06 0.00 67 1005.4
20260903103711 78 195 8.0 17.0 0.00 0.06 0.00 67 1005.4
20260903102710 78 168 9.0 15.0 0.00 0.06 0.00 67 1005.4
20260903101711 79 188 10.0 20.0 0.00 0.06 0.00 66 1005.3
20260903100710 79 196 8.0 14.0 0.00 0.06 0.00 66 1005.3
20260903095710 79 207 9.0 16.0 0.00 0.06 0.00 65 1005.4
20260903091711 80 175 10.0 21.0 0.00 0.06 0.00 64 1005.4
20260903090711 80 169 10.0 23.0 0.00 0.06 0.00 63 1005.5
20260903085710 80 224 9.0 20.0 0.00 0.06 0.00 63 1005.6
20260903084710 80 199 10.0 20.0 0.00 0.06 0.00 63 1005.7
20260903082710 80 155 12.0 20.0 0.00 0.06 0.00 63 1005.9
20260903081711 80 202 10.0 18.0 0.00 0.06 0.00 63 1005.8
20260903080711 80 192 10.0 20.0 0.00 0.06 0.00 63 1005.9
20260903075711 80 164 9.0 17.0 0.00 0.06 0.00 63 1006.0
20260903074711 80 200 10.0 20.0 0.00 0.06 0.00 63 1006.0
20260903073710 80 163 10.0 17.0 0.00 0.06 0.00 63 1006.2
20260903072711 80 176 9.0 15.0 0.00 0.06 0.00 63 1006.1
20260903071710 80 187 10.0 16.0 0.00 0.06 0.00 63 1006.1
20260903070711 81 192 9.0 15.0 0.00 0.06 0.00 62 1006.3
20260903065710 81 177 10.0 17.0 0.00 0.06 0.00 62 1006.1
20260903064711 81 202 12.0 18.0 0.00 0.06 0.00 62 1006.2
20260903063711 81 188 10.0 16.0 0.00 0.06 0.00 62 1006.3
20260903062711 81 171 9.0 20.0 0.00 0.06 0.00 62 1006.2
20260903061710 81 197 11.0 20.0 0.00 0.06 0.00 61 1006.3
20260903060710 81 172 10.0 15.0 0.00 0.06 0.00 61 1006.2
20260903052711 82 175 12.0 20.0 0.00 0.06 0.00 60 1006.3
20260903051711 83 190 10.0 21.0 0.00 0.06 0.00 59 1006.2
20260903050711 83 168 11.0 18.0 0.00 0.06 0.00 59 1006.2
20260903045711 83 169 10.0 20.0 0.00 0.06 0.06 59 1006.2
20260903044711 83 177 11.0 20.0 0.00 0.06 0.06 59 1006.0
20260903043711 83 176 10.0 20.0 0.00 0.06 0.06 59 1006.2
20260903042710 84 148 12.0 21.0 0.00 0.06 0.06 58 1006.2
20260903040710 84 174 13.0 24.0 0.00 0.06 0.06 57 1006.2
20260903035710 85 196 12.0 21.0 0.00 0.06 0.06 56 1006.0
20260903034711 85 196 13.0 24.0 0.00 0.06 0.06 56 1006.1
20260903033710 85 171 13.0 22.0 0.00 0.06 0.06 56 1006.1
20260903031711 85 184 14.0 22.0 0.00 0.06 0.06 56 1006.1
20260903030710 85 169 13.0 25.0 0.00 0.06 0.06 56 1006.0
20260903025710 85 180 13.0 20.0 0.00 0.06 0.06 57 1005.9
20260903023711 85 159 10.0 18.0 0.00 0.06 0.06 58 1005.8
20260903022711 85 168 10.0 15.0 0.00 0.06 0.06 59 1005.8
20260903021711 85 184 9.0 14.0 0.00 0.06 0.06 60 1005.7
20260903020711 86 175 7.0 13.0 0.00 0.06 0.06 60 1005.6
20260903015711 86 166 9.0 13.0 0.00 0.06 0.06 60 1005.6
20260903013711 87 159 7.0 13.0 0.00 0.06 0.06 62 1005.3
20260903012712 87 158 7.0 12.0 0.00 0.06 0.06 63 1005.5
20260903011711 88 163 6.0 12.0 0.00 0.06 0.06 63 1005.4
20260903010710 89 113 5.0 10.0 0.00 0.06 0.06 64 1005.3
20260903005711 89 121 3.0 8.0 0.00 0.06 0.06 64 1005.4
20260903004710 90 119 4.0 9.0 0.00 0.06 0.06 62 1005.3
20260903003711 90 130 5.0 10.0 0.00 0.06 0.06 61 1005.3
20260903002711 91 133 6.0 9.0 0.00 0.06 0.06 60 1005.3
20260903001711 91 117 5.0 8.0 0.00 0.06 0.06 58 1005.2
20260903000710 91 115 4.0 8.0 0.00 0.06 0.06 57 1005.3
20260902235710 92 148 6.0 9.0 0.00 0.06 0.06 56 1005.5
20260902234710 92 101 4.0 9.0 0.00 0.06 0.06 57 1005.6
20260902233711 92 155 4.0 7.0 0.00 0.06 0.06 56 1005.6
20260902232711 92 139 3.0 6.0 0.00 0.06 0.06 56 1005.6
20260902231710 92 161 4.0 7.0 0.00 0.06 0.06 56 1005.8
20260902230710 92 157 3.0 5.0 0.00 0.06 0.06 56 1005.9
20260902225710 92 166 3.0 5.0 0.00 0.06 0.06 55 1005.9
20260902224710 93 175 2.0 7.0 0.00 0.06 0.06 55 1006.1
20260902223711 93 176 5.0 8.0 0.00 0.06 0.06 55 1006.2
20260902222711 93 150 5.0 12.0 0.00 0.06 0.06 54 1006.3
20260902221711 93 178 4.0 10.0 0.00 0.06 0.06 54 1006.5
20260902220711 93 166 6.0 9.0 0.00 0.06 0.06 54 1006.5
20260902195710 93 163 9.0 17.0 0.00 0.06 0.06 55 1007.7
20260902193710 92 215 8.0 16.0 0.00 0.06 0.06 53 1007.6
20260902191710 92 187 5.0 12.0 0.00 0.06 0.06 56 1007.6
20260902190712 91 214 10.0 12.0 0.00 0.06 0.06 54 1007.7